Time,TemperatureF,DewpointF,PressureIn,WindDirection,WindDirectionDegrees,WindSpeedMPH,WindSpeedGustMPH,Humidity,HourlyPrecipIn,Conditions,Clouds,dailyrainin,SolarRadiationWatts/m^2,SoftwareType,DateUTC
2013-04-13 00:00:00,37.0,30.0,-100.00,West,270,14.0,-999.0,76,-99.99,,,-99.99,0.000000,,2013-04-13 04:00:00,
2013-04-13 00:42:00,37.0,30.0,-100.00,West,270,14.0,-999.0,76,-99.99,,,-99.99,0.000000,,2013-04-13 04:42:00,
2013-04-13 00:53:00,37.0,30.0,-100.00,West,270,14.0,-999.0,76,-99.99,,,-99.99,0.000000,,2013-04-13 04:53:00,
2013-04-13 01:00:00,36.0,29.0,-100.00,West,270,13.0,-999.0,73,-99.99,,,-99.99,0.000000,,2013-04-13 05:00:00,
2013-04-13 01:43:00,36.0,29.0,-100.00,West,270,13.0,-999.0,73,-99.99,,,-99.99,0.000000,,2013-04-13 05:43:00,
2013-04-13 01:53:00,36.0,29.0,-100.00,West,270,13.0,-999.0,73,-99.99,,,-99.99,0.000000,,2013-04-13 05:53:00,
2013-04-13 04:00:00,36.0,28.0,-100.00,WSW,247,11.0,-999.0,72,-99.99,,,-99.99,0.000000,,2013-04-13 08:00:00,
2013-04-13 04:47:00,36.0,28.0,-100.00,WSW,247,11.0,-999.0,72,-99.99,,,-99.99,0.000000,,2013-04-13 08:47:00,
2013-04-13 04:54:00,36.0,28.0,-100.00,WSW,247,11.0,-999.0,72,-99.99,,,-99.99,0.000000,,2013-04-13 08:54:00,
2013-04-13 05:00:00,36.0,29.0,-100.00,WSW,247,11.0,-999.0,74,-99.99,,,-99.99,0.000000,,2013-04-13 09:00:00,
2013-04-13 05:53:00,36.0,29.0,-100.00,WSW,247,11.0,-999.0,74,-99.99,,,-99.99,0.000000,,2013-04-13 09:53:00,
2013-04-13 06:00:00,35.0,28.0,-100.00,WSW,247,12.0,-999.0,74,-99.99,,,-99.99,0.000000,,2013-04-13 10:00:00,
2013-04-13 06:50:00,35.0,28.0,-100.00,WSW,247,12.0,-999.0,74,-99.99,,,-99.99,0.000000,,2013-04-13 10:50:00,
2013-04-13 07:00:00,35.0,28.0,-100.00,WSW,247,13.0,-999.0,74,-99.99,,,-99.99,0.000000,,2013-04-13 11:00:00,
2013-04-13 07:46:00,35.0,28.0,-100.00,WSW,247,13.0,-999.0,74,-99.99,,,-99.99,0.000000,,2013-04-13 11:46:00,
2013-04-13 07:54:00,35.0,28.0,-100.00,WSW,247,13.0,-999.0,74,-99.99,,,-99.99,0.000000,,2013-04-13 11:54:00,
2013-04-13 08:00:00,35.0,26.0,-100.00,WSW,247,12.0,-999.0,69,-99.99,,,-99.99,9.280000,,2013-04-13 12:00:00,
2013-04-13 08:49:00,35.0,26.0,-100.00,WSW,247,12.0,-999.0,69,-99.99,,,-99.99,9.280000,,2013-04-13 12:49:00,
2013-04-13 08:55:00,35.0,26.0,-100.00,WSW,247,12.0,-999.0,69,-99.99,,,-99.99,9.280000,,2013-04-13 12:55:00,
2013-04-13 09:00:00,34.0,26.0,-100.00,WSW,247,14.0,-999.0,69,-99.99,,,-99.99,42.919998,,2013-04-13 13:00:00,
2013-04-13 09:49:00,34.0,26.0,-100.00,WSW,247,14.0,-999.0,69,-99.99,,,-99.99,42.919998,,2013-04-13 13:49:00,
2013-04-13 09:56:00,34.0,26.0,-100.00,WSW,247,14.0,-999.0,69,-99.99,,,-99.99,42.919998,,2013-04-13 13:56:00,
2013-04-13 10:00:00,35.0,26.0,-100.00,WSW,247,13.0,-999.0,69,-99.99,,,-99.99,106.720001,,2013-04-13 14:00:00,
2013-04-13 10:48:00,35.0,26.0,-100.00,WSW,247,13.0,-999.0,69,-99.99,,,-99.99,106.720001,,2013-04-13 14:48:00,
2013-04-13 10:59:00,35.0,26.0,-100.00,WSW,247,13.0,-999.0,69,-99.99,,,-99.99,106.720001,,2013-04-13 14:59:00,
2013-04-13 11:00:00,35.0,26.0,-100.00,WSW,247,16.0,-999.0,69,-99.99,,,-99.99,169.360001,,2013-04-13 15:00:00,
2013-04-13 11:45:00,35.0,26.0,-100.00,WSW,247,16.0,-999.0,69,-99.99,,,-99.99,169.360001,,2013-04-13 15:45:00,
2013-04-13 11:58:00,35.0,26.0,-100.00,WSW,247,16.0,-999.0,69,-99.99,,,-99.99,169.360001,,2013-04-13 15:58:00,
2013-04-13 12:00:00,37.0,27.0,-100.00,WSW,247,16.0,-999.0,68,-99.99,,,-99.99,354.959991,,2013-04-13 16:00:00,
2013-04-13 12:48:00,37.0,27.0,-100.00,WSW,247,16.0,-999.0,68,-99.99,,,-99.99,354.959991,,2013-04-13 16:48:00,
2013-04-13 12:56:00,37.0,27.0,-100.00,WSW,247,16.0,-999.0,68,-99.99,,,-99.99,354.959991,,2013-04-13 16:56:00,
2013-04-13 13:00:00,37.0,27.0,-100.00,West,270,17.0,-999.0,65,-99.99,,,-99.99,332.920013,,2013-04-13 17:00:00,
2013-04-13 13:45:00,37.0,27.0,-100.00,West,270,17.0,-999.0,65,-99.99,,,-99.99,332.920013,,2013-04-13 17:45:00,
2013-04-13 14:00:00,38.0,26.0,-100.00,West,270,19.0,-999.0,63,-99.99,,,-99.99,446.600006,,2013-04-13 18:00:00,
2013-04-13 14:42:00,38.0,26.0,-100.00,West,270,19.0,-999.0,63,-99.99,,,-99.99,446.600006,,2013-04-13 18:42:00,
2013-04-13 14:53:00,38.0,26.0,-100.00,West,270,19.0,-999.0,63,-99.99,,,-99.99,446.600006,,2013-04-13 18:53:00,
2013-04-13 15:00:00,39.0,26.0,-100.00,West,270,18.0,-999.0,59,-99.99,,,-99.99,445.440002,,2013-04-13 19:00:00,
2013-04-13 15:42:00,39.0,26.0,-100.00,West,270,18.0,-999.0,59,-99.99,,,-99.99,445.440002,,2013-04-13 19:42:00,
2013-04-13 15:53:00,39.0,26.0,-100.00,West,270,18.0,-999.0,59,-99.99,,,-99.99,445.440002,,2013-04-13 19:53:00,
2013-04-13 16:00:00,39.0,26.0,-100.00,West,270,17.0,-999.0,59,-99.99,,,-99.99,381.640015,,2013-04-13 20:00:00,
2013-04-13 16:42:00,39.0,26.0,-100.00,West,270,17.0,-999.0,59,-99.99,,,-99.99,381.640015,,2013-04-13 20:42:00,
2013-04-13 16:52:00,39.0,26.0,-100.00,West,270,17.0,-999.0,59,-99.99,,,-99.99,381.640015,,2013-04-13 20:52:00,
2013-04-13 17:00:00,39.0,25.0,-100.00,West,270,15.0,-999.0,57,-99.99,,,-99.99,286.519989,,2013-04-13 21:00:00,
2013-04-13 17:43:00,39.0,25.0,-100.00,West,270,15.0,-999.0,57,-99.99,,,-99.99,286.519989,,2013-04-13 21:43:00,
2013-04-13 17:53:00,39.0,25.0,-100.00,West,270,15.0,-999.0,57,-99.99,,,-99.99,286.519989,,2013-04-13 21:53:00,
2013-04-13 18:00:00,39.0,25.0,-100.00,WSW,247,13.0,-999.0,57,-99.99,,,-99.99,176.320007,,2013-04-13 22:00:00,
2013-04-13 18:42:00,39.0,25.0,-100.00,WSW,247,13.0,-999.0,57,-99.99,,,-99.99,176.320007,,2013-04-13 22:42:00,
2013-04-13 18:53:00,39.0,25.0,-100.00,WSW,247,13.0,-999.0,57,-99.99,,,-99.99,176.320007,,2013-04-13 22:53:00,
2013-04-13 21:00:00,37.0,25.0,-100.00,West,270,6.0,-999.0,60,-99.99,,,-99.99,2.320000,,2013-04-14 01:00:00,
2013-04-13 21:42:00,37.0,25.0,-100.00,West,270,6.0,-999.0,60,-99.99,,,-99.99,2.320000,,2013-04-14 01:42:00,
2013-04-13 21:53:00,37.0,25.0,-100.00,West,270,6.0,-999.0,60,-99.99,,,-99.99,2.320000,,2013-04-14 01:53:00,
2013-04-13 22:00:00,36.0,26.0,-100.00,WSW,247,4.0,-999.0,65,-99.99,,,-99.99,0.000000,,2013-04-14 02:00:00,
2013-04-13 22:43:00,36.0,26.0,-100.00,WSW,247,4.0,-999.0,65,-99.99,,,-99.99,0.000000,,2013-04-14 02:43:00,
2013-04-13 22:53:00,36.0,26.0,-100.00,WSW,247,4.0,-999.0,65,-99.99,,,-99.99,0.000000,,2013-04-14 02:53:00,
2013-04-13 23:00:00,36.0,26.0,-100.00,WSW,247,3.0,-999.0,67,-99.99,,,-99.99,0.000000,,2013-04-14 03:00:00,
2013-04-13 23:43:00,36.0,26.0,-100.00,WSW,247,3.0,-999.0,67,-99.99,,,-99.99,0.000000,,2013-04-14 03:43:00,
2013-04-13 23:53:00,36.0,26.0,-100.00,WSW,247,3.0,-999.0,67,-99.99,,,-99.99,0.000000,,2013-04-14 03:53:00,